GFSSGP_sfc_temp_000.txt.gz
Temp
78 85 89 92 74 77 74 75 86 86 86 91 92 88 85 88 81 71 93 95 97 90 85 82 79 79 79 79 79 78 78 77 78 77 77 77 77 77 77 77 77 77 77 78 79 79 78 79 79
93 94 91 86 71 69 74 83 82 87 90 92 92 90 87 83 92 91 90 95 97 92 82 84 78 78 79 78 78 78 78 78 77 77 77 77 77 77 77 77 77 77 77 77 78 79 79 79 79
89 97 85 79 75 71 73 84 86 90 93 90 88 93 89 83 90 92 94 95 96 93 90 82 79 78 78 78 78 78 77 77 77 77 77 77 77 77 76 76 76 77 77 77 78 78 79 78 79
91 92 87 75 75 83 83 86 89 88 92 93 91 85 91 93 92 95 96 97 95 95 93 80 79 78 78 79 78 78 77 77 77 77 77 77 77 77 76 76 76 76 77 77 78 78 77 78 77
93 89 76 75 77 81 86 91 90 87 89 91 91 84 85 91 95 95 94 95 93 93 89 82 78 79 78 78 78 78 77 77 76 77 76 76 75 75 76 76 76 77 76 76 77 77 77 77 77
84 87 73 72 79 84 88 91 89 88 91 91 89 87 84 92 92 93 95 93 94 89 86 85 79 78 77 76 75 74 74 73 73 73 73 74 74 74 74 75 75 76 76 76 76 77 76 76 75
80 79 74 77 78 81 86 93 87 88 88 88 92 82 87 89 93 93 93 91 91 90 88 85 83 80 77 76 76 73 72 72 72 72 71 72 72 73 73 74 74 75 76 75 75 76 76 75 75
86 82 75 78 77 79 90 91 93 90 87 95 94 82 82 89 92 92 92 91 90 89 90 86 82 86 81 75 74 73 73 73 72 72 72 71 71 72 73 73 73 74 75 75 74 75 75 75 75
93 75 71 75 79 82 91 88 94 97 89 91 93 91 92 93 92 90 88 91 91 91 87 84 86 82 81 81 79 74 76 74 74 74 73 71 70 71 73 74 74 75 74 74 73 75 75 74 75
83 74 75 85 87 85 89 88 89 88 88 88 89 93 92 92 89 88 87 86 87 87 87 86 80 77 79 81 78 77 77 75 73 71 70 70 70 69 73 74 74 74 73 74 74 74 74 75 72
84 76 83 85 89 90 87 87 90 87 83 88 86 90 90 88 88 87 89 89 84 84 85 82 79 78 77 75 75 74 75 73 72 70 69 68 69 69 70 69 70 69 72 70 72 72 72 72 71
79 85 86 88 90 88 85 89 86 88 88 94 93 93 91 87 85 86 87 85 83 84 83 83 80 76 76 76 75 74 74 71 71 71 69 67 68 67 68 68 69 67 67 67 67 68 70 70 71
81 84 88 89 88 87 89 86 86 87 93 95 95 93 90 88 87 86 87 87 84 82 82 81 78 77 75 73 73 72 71 72 71 70 69 69 67 65 66 67 67 67 68 66 66 67 68 70 72
86 86 86 87 86 88 85 86 87 88 93 91 91 90 90 89 88 84 83 82 82 81 80 80 79 77 76 73 72 71 71 71 70 68 68 69 67 65 66 67 66 66 66 66 66 68 67 68 70
86 79 83 85 86 85 88 80 81 89 91 89 89 89 89 89 89 86 82 80 82 81 80 79 77 76 75 73 73 71 70 70 68 68 67 66 67 66 67 65 65 65 66 66 66 67 67 67 70
79 79 72 82 86 87 85 71 84 90 89 86 88 89 88 87 89 88 84 80 80 80 79 80 81 80 77 76 74 71 70 70 69 68 66 65 67 68 66 65 66 66 65 65 65 65 66 66 67
75 67 71 76 87 85 83 75 84 90 88 86 87 88 88 88 86 83 84 81 79 79 79 79 79 77 77 75 71 70 72 71 70 68 65 65 68 70 67 65 67 67 65 64 65 64 65 66 66
66 69 73 72 81 85 80 78 84 87 87 85 86 87 87 86 83 83 82 81 79 79 78 78 77 77 77 74 70 66 71 72 70 70 68 67 68 70 68 66 66 67 65 64 65 65 66 67 68
75 73 73 79 85 79 77 78 82 86 86 85 85 86 85 84 85 82 80 80 78 77 77 76 76 77 75 73 70 70 71 69 67 68 70 68 68 69 68 66 66 66 65 65 65 66 66 65 66
74 72 72 79 84 81 79 77 82 84 84 85 85 85 85 83 82 80 78 78 76 75 76 76 76 77 75 74 73 72 71 71 72 70 70 71 68 69 68 66 65 66 65 66 66 66 64 64 65
73 71 72 73 80 82 78 73 77 83 86 88 88 88 87 81 79 78 77 76 76 75 76 76 77 77 76 76 72 73 70 68 70 68 66 67 70 70 69 68 67 66 66 66 65 66 65 63 65
68 79 78 76 72 64 78 60 73 79 80 84 86 85 84 82 81 79 77 75 75 76 77 77 77 77 76 75 73 71 66 64 67 67 67 65 71 70 69 69 69 68 66 65 66 66 63 64 61
75 82 79 77 71 69 69 63 70 79 76 81 84 86 84 83 81 79 78 77 78 78 77 77 77 77 77 77 74 71 69 67 67 67 67 66 64 69 70 69 70 68 67 67 67 67 66 66 64
84 79 77 76 71 58 67 65 65 72 77 80 85 87 84 84 82 80 79 79 77 79 77 76 76 76 77 78 77 74 69 68 66 66 66 65 65 65 69 70 70 69 68 69 68 68 67 67 66
80 72 60 54 55 54 70 65 68 79 82 83 83 85 84 84 81 79 77 77 77 76 76 77 76 75 76 78 77 74 70 66 67 66 64 65 64 64 65 67 68 68 68 70 69 68 67 67 67
75 71 61 48 51 58 71 62 70 82 86 86 87 86 84 82 80 79 78 77 78 77 76 76 76 75 76 77 77 76 70 66 68 67 65 64 64 64 66 67 68 69 69 68 68 66 67 67 67
74 68 76 65 68 62 67 71 78 82 82 84 84 83 80 80 78 78 79 78 77 76 75 77 76 76 78 77 76 76 70 69 68 69 67 64 66 66 68 68 68 69 69 68 67 66 68 68 66
78 81 64 66 51 48 61 65 67 73 77 81 81 80 79 79 79 79 79 78 78 77 76 77 78 77 78 77 76 77 71 72 71 70 68 65 67 69 67 68 68 68 68 68 68 68 68 66 65
74 72 72 70 66 54 52 61 80 77 79 78 80 81 79 78 79 79 80 79 80 78 78 76 77 77 76 77 77 77 73 75 72 69 70 65 66 68 68 68 68 68 68 67 67 67 67 66 65
79 74 72 63 59 65 64 64 82 81 83 83 81 81 80 80 81 81 81 79 79 78 78 77 77 77 77 78 77 77 75 75 70 69 70 67 68 70 71 71 70 69 69 69 68 67 67 65 64

GFSSGP_sfc_temp_003.txt.gz
Temp
71 74 74 75 61 59 56 69 78 77 75 78 83 80 74 75 73 59 78 83 82 78 76 78 79 79 79 78 78 78 77 77 77 77 77 77 77 77 77 77 77 77 77 77 78 79 79 79 79
76 81 78 71 57 50 57 72 76 74 79 83 82 81 78 73 82 80 79 83 82 79 75 76 78 78 78 78 78 77 77 77 77 77 77 77 77 77 77 77 77 77 77 77 78 78 79 79 79
82 87 70 64 58 54 61 73 80 80 84 81 78 85 81 76 83 81 83 84 80 78 77 77 78 78 78 78 78 77 77 77 76 77 77 77 77 77 76 76 77 77 77 77 77 78 78 79 79
79 76 73 59 58 69 73 77 81 79 83 83 82 78 81 85 84 84 86 87 84 80 81 78 78 78 78 78 78 77 77 77 77 77 77 77 77 77 77 77 77 77 77 77 78 78 78 78 78
77 72 59 57 63 73 76 81 78 77 80 80 83 77 74 82 86 85 85 87 82 75 75 76 78 77 78 78 78 77 77 76 75 76 77 76 76 76 76 76 76 76 77 77 77 77 77 77 77
68 69 55 54 65 77 78 78 79 78 81 82 79 75 73 82 84 83 84 82 79 75 74 75 78 77 77 77 77 75 74 73 73 73 74 74 74 74 75 75 75 76 77 77 77 76 77 76 75
65 60 58 63 67 72 79 82 78 78 76 77 82 73 72 79 82 82 81 79 79 79 75 73 72 76 77 76 75 74 73 73 73 73 73 73 73 73 73 74 74 75 75 76 76 75 76 75 75
72 64 61 66 66 67 82 84 83 81 81 89 88 75 68 76 81 80 78 77 78 77 75 71 69 70 69 70 75 74 74 74 73 73 73 72 71 72 73 73 73 74 75 75 75 75 75 75 74
81 61 60 64 68 72 79 77 85 87 82 84 86 83 82 82 82 77 73 73 74 77 74 73 71 69 68 67 71 73 75 75 74 73 74 71 66 64 68 71 73 73 74 75 75 74 74 75 74
72 64 66 75 77 75 77 77 79 81 80 81 83 83 84 83 77 75 73 73 74 74 72 72 69 68 69 75 66 65 69 66 66 66 65 64 63 63 69 71 74 74 74 74 74 74 73 74 67
75 66 75 77 82 83 79 77 82 80 76 80 78 78 79 78 75 75 74 73 71 74 71 70 69 68 67 66 64 64 64 63 63 65 64 62 63 62 62 63 65 64 70 65 70 69 69 68 65
70 76 78 80 83 82 76 80 79 81 81 86 86 82 79 76 74 74 74 72 72 71 71 70 68 67 66 64 64 63 63 62 62 62 63 61 60 61 61 62 63 63 63 62 63 63 64 66 66
72 76 80 82 83 78 80 77 78 81 84 88 88 84 76 74 75 74 75 72 71 70 69 67 68 65 65 64 63 63 62 62 63 62 63 62 61 62 62 61 62 61 62 62 62 62 63 64 65
77 78 79 81 80 78 76 78 81 82 85 85 84 81 80 77 75 73 73 71 70 69 69 68 68 65 65 63 63 63 63 63 63 62 62 64 65 62 60 61 60 60 61 61 61 62 62 62 63
77 71 76 78 79 75 81 73 75 80 83 81 80 80 79 78 76 74 72 69 69 68 70 68 67 67 65 64 64 63 63 64 62 62 64 65 64 63 61 60 60 60 60 61 61 61 61 61 63
70 71 63 72 77 80 76 65 76 81 79 77 80 80 79 76 76 72 71 70 69 69 68 68 74 67 65 64 65 64 64 63 62 62 62 63 64 62 61 60 59 60 60 60 60 60 60 61 62
66 57 60 67 78 78 74 69 78 80 80 76 76 76 78 75 71 71 72 69 68 69 68 67 68 68 66 66 65 64 65 63 63 63 61 62 63 64 61 60 60 61 59 59 60 60 61 60 61
56 58 65 65 73 76 73 71 74 77 78 75 74 75 76 72 71 72 70 70 68 68 68 68 67 66 66 66 63 62 63 63 63 62 61 62 62 64 62 61 61 60 59 59 59 59 60 61 61
66 63 63 70 77 74 69 71 72 75 75 72 73 72 73 70 70 71 71 70 68 67 66 66 66 65 64 63 62 60 60 62 62 63 64 63 63 64 62 60 61 60 59 59 60 60 60 60 60
66 63 62 69 76 74 71 69 72 73 73 73 73 72 70 66 69 70 67 67 66 66 66 66 66 65 65 63 63 63 62 63 63 63 64 64 65 64 63 61 60 60 59 60 60 60 59 59 61
65 62 62 63 71 74 67 61 66 73 76 77 76 73 70 68 67 67 68 64 65 66 66 66 66 66 66 66 64 62 62 62 61 62 61 62 65 65 64 62 61 61 60 59 60 60 60 58 60
60 71 70 68 64 53 66 46 60 67 69 73 73 68 68 69 69 68 67 64 65 66 67 68 66 66 67 66 64 63 60 59 61 62 62 61 65 64 64 63 62 61 60 60 61 61 60 62 59
66 74 71 69 64 57 58 50 55 66 65 70 69 69 69 70 68 67 67 67 67 68 66 66 66 66 67 66 66 63 62 62 62 61 61 61 62 63 65 64 62 61 60 60 62 60 60 62 60
77 71 69 67 59 44 55 53 53 59 66 68 72 72 70 68 68 68 68 68 67 66 66 66 65 65 67 67 66 63 62 63 61 59 59 59 61 61 63 65 62 62 61 61 62 62 61 61 60
73 61 48 39 40 39 60 54 57 66 70 72 70 68 68 69 68 67 67 66 65 64 64 66 65 64 67 67 67 63 62 62 60 59 59 59 59 59 60 62 61 61 62 63 63 63 63 62 61
66 62 46 37 38 47 62 52 61 70 73 74 73 70 69 67 68 67 66 66 66 66 64 66 65 64 67 66 67 63 63 62 60 59 60 60 59 59 61 61 62 63 63 63 62 61 62 63 62
66 58 64 53 52 47 54 62 66 70 71 72 70 69 65 64 64 66 66 65 65 64 64 65 65 66 66 66 67 63 64 63 62 61 60 60 60 61 62 62 62 62 63 62 62 63 63 62 62
71 69 55 49 39 35 50 53 54 62 66 69 67 65 64 64 65 66 67 65 64 65 65 65 66 66 66 67 67 66 68 64 63 62 62 61 61 61 62 62 62 63 63 62 63 63 62 61 61
66 59 57 55 51 40 37 47 63 64 66 67 67 68 66 67 66 66 66 66 65 65 65 65 66 66 66 67 67 70 69 66 65 63 62 63 61 62 63 62 62 63 62 62 62 61 62 61 63
67 62 58 53 46 51 48 49 68 67 69 68 69 69 66 67 66 68 67 66 65 64 65 65 66 66 66 67 68 69 68 66 64 64 64 63 62 63 64 64 63 64 63 62 63 63 63 61 60

GFSSGP_sfc_temp_006.txt.gz
Temp
70 71 71 73 60 56 52 61 70 73 70 75 77 77 73 71 71 60 74 80 80 77 75 78 78 78 78 78 78 77 77 77 77 77 77 77 77 77 77 77 76 77 77 77 77 78 78 79 79
71 76 73 68 54 48 53 67 67 72 76 77 78 75 73 70 77 77 75 78 80 76 75 76 78 78 78 78 77 77 77 77 77 77 77 76 77 77 77 77 77 77 77 77 77 77 78 79 79
77 81 66 60 53 50 53 69 74 76 80 78 75 81 77 74 78 79 77 79 78 75 75 75 78 78 78 78 77 77 77 77 77 77 77 77 77 77 77 76 76 77 77 78 78 77 78 78 78
76 71 67 56 53 62 66 73 78 73 78 77 77 74 78 82 81 81 80 80 78 76 77 77 78 78 78 78 78 77 77 77 77 77 77 77 77 77 76 76 76 77 77 77 78 77 77 78 78
73 66 55 51 57 65 73 76 77 74 74 75 76 71 71 80 83 81 79 80 75 73 74 76 78 77 78 78 78 77 77 77 76 76 76 77 77 77 76 76 76 77 77 77 77 77 77 77 77
64 63 51 51 60 69 73 77 77 75 77 77 73 72 72 80 80 79 79 75 76 73 72 74 77 77 77 77 77 76 75 75 74 74 74 74 74 75 75 75 75 76 76 77 77 77 76 76 75
61 56 51 57 62 66 71 78 75 75 73 76 77 68 70 75 79 78 75 75 74 75 73 72 73 76 77 76 76 75 74 73 73 73 73 73 73 73 74 74 74 75 75 75 76 76 76 75 75
66 60 54 57 59 61 73 75 76 75 78 83 83 68 66 76 78 74 74 73 72 71 72 69 68 69 69 70 76 75 74 74 74 73 73 73 72 72 72 72 73 74 74 75 75 75 75 74 75
73 55 53 57 62 66 76 68 80 83 78 81 82 77 80 80 76 72 70 70 69 71 68 68 66 66 66 67 71 74 75 75 74 73 73 71 64 64 66 69 72 73 73 74 75 75 74 73 74
64 54 61 69 69 67 74 71 77 77 76 77 78 77 78 79 75 73 70 68 67 68 67 66 65 64 65 71 66 65 66 65 65 64 63 62 62 61 66 69 73 74 74 74 74 74 73 73 66
65 62 70 71 75 76 75 76 80 76 72 76 74 75 76 74 71 71 70 69 69 67 68 65 65 64 64 63 61 61 61 61 61 63 62 61 62 60 61 60 62 62 68 64 67 67 68 67 64
61 71 73 74 77 76 74 80 78 77 77 81 81 79 75 72 71 70 69 69 67 67 66 65 64 63 62 62 61 61 61 61 61 61 61 60 59 59 60 60 61 61 61 62 62 61 63 64 65
65 70 74 77 77 77 79 76 77 76 81 82 81 78 75 73 72 70 70 68 66 65 64 63 63 62 62 62 61 61 60 60 61 60 61 61 59 59 62 62 61 60 60 60 60 61 61 62 64
70 71 73 75 75 77 75 76 74 78 81 80 78 75 75 72 72 68 67 66 66 66 64 63 63 62 63 61 61 61 61 62 61 61 61 62 60 60 62 59 59 59 59 60 60 60 60 61 62
71 66 71 72 73 73 77 70 71 78 79 76 76 75 75 75 73 72 71 69 68 66 65 63 63 63 62 62 62 61 61 62 61 61 61 62 61 60 60 59 59 59 59 59 59 60 60 60 61
62 59 55 68 72 75 70 62 74 78 75 74 75 76 75 72 73 72 70 69 65 64 64 64 70 63 62 60 61 61 62 61 61 60 61 62 62 61 59 58 59 59 58 58 58 59 59 59 59
56 53 56 61 71 72 69 66 75 79 76 74 73 73 74 74 69 68 70 68 65 65 63 64 64 63 62 62 61 62 62 61 61 61 60 61 62 62 59 59 59 59 58 57 58 57 59 58 58
53 53 57 60 69 69 67 66 74 78 76 74 72 72 71 70 69 68 66 67 64 64 64 63 63 63 63 62 61 61 60 61 62 62 61 61 60 62 60 59 59 59 57 57 57 57 59 59 58
60 57 56 65 71 65 65 67 72 74 71 73 69 69 69 67 65 66 66 66 64 63 63 62 63 62 61 60 60 59 59 60 61 62 62 62 61 62 60 59 59 59 57 57 57 58 58 57 58
60 58 58 64 70 65 65 65 72 72 69 69 70 69 66 61 64 65 63 64 63 62 62 62 63 62 61 60 60 60 60 60 61 61 62 63 62 63 61 60 59 59 57 57 58 58 57 57 58
60 58 59 59 66 68 63 60 62 70 69 71 71 69 64 64 63 64 64 62 61 62 62 63 62 62 62 63 61 60 60 60 60 61 61 62 63 64 62 61 59 59 58 57 57 58 58 57 58
55 66 66 63 59 49 62 46 55 65 66 68 69 67 63 66 65 65 63 60 61 62 63 63 63 62 64 63 61 61 59 58 59 59 60 60 62 63 62 61 60 59 58 57 58 59 59 59 57
60 68 64 63 58 54 58 48 54 61 62 67 68 64 62 66 65 64 63 64 63 64 62 62 62 63 64 63 62 60 59 59 59 58 59 60 61 63 63 61 60 59 58 59 60 59 59 59 59
70 64 62 61 56 46 56 52 56 56 63 65 65 65 64 62 62 61 64 64 63 62 61 62 62 62 63 63 62 60 59 58 57 57 58 58 58 60 61 62 60 59 59 59 59 59 59 59 60
64 55 42 35 40 42 55 50 55 61 65 69 68 65 62 62 61 62 62 62 61 61 61 61 62 62 62 63 61 61 60 59 57 57 57 57 57 57 58 60 60 59 60 60 60 59 61 59 60
60 57 46 36 36 44 57 49 58 66 69 70 69 64 62 60 62 63 63 63 61 62 61 63 62 62 62 62 61 60 60 58 57 59 58 57 57 57 59 60 60 61 62 61 60 61 60 60 59
59 54 63 49 48 44 48 56 63 66 65 64 63 64 60 60 60 62 63 62 61 60 61 62 61 62 62 63 61 60 60 60 59 59 58 58 58 59 60 60 60 61 61 61 61 61 60 61 62
63 64 52 45 39 36 45 49 50 58 60 62 61 60 59 59 60 63 64 61 61 61 61 61 61 62 63 63 62 63 66 61 60 59 59 59 59 59 60 60 60 60 61 60 61 60 60 62 62
59 56 54 53 48 40 35 44 57 63 61 62 62 63 61 61 62 63 63 62 61 61 61 61 61 62 62 63 63 65 63 62 61 60 59 59 60 60 60 60 61 60 60 60 60 59 61 63 63
65 60 56 52 44 46 45 49 62 64 63 67 63 65 63 64 63 63 63 61 60 60 61 61 61 62 63 64 64 67 64 62 61 60 60 60 60 60 61 61 62 61 60 61 61 61 62 63 62

GFSSGP_sfc_temp_009.txt.gz
Temp
70 70 69 70 59 54 50 58 65 68 68 74 74 72 71 71 70 61 73 77 77 77 74 77 78 78 78 78 78 77 77 77 77 77 78 77 77 77 77 76 76 76 77 77 77 77 78 78 78
69 73 72 65 52 46 51 61 65 69 75 74 73 71 70 68 74 74 74 77 77 74 74 76 78 78 78 78 77 77 77 77 77 77 77 77 77 77 77 77 77 77 77 77 77 77 77 78 78
73 77 65 58 50 47 52 63 68 73 77 73 73 75 72 71 76 75 76 77 74 73 74 74 78 78 78 78 77 77 77 77 77 77 77 76 76 76 76 77 77 77 77 78 78 78 77 77 78
74 69 65 54 51 57 61 68 71 72 76 75 74 70 75 79 77 79 77 77 75 74 74 76 78 77 78 78 77 77 77 77 77 77 76 76 76 77 76 76 76 77 77 78 78 78 77 77 77
70 63 53 49 53 60 66 71 71 71 74 74 75 70 70 77 79 77 75 78 74 70 70 74 77 77 78 78 78 77 77 77 76 76 76 76 76 76 76 76 76 76 77 77 78 77 77 76 77
63 61 48 46 54 64 67 72 71 73 75 72 71 70 70 76 75 74 76 73 74 71 69 72 77 77 77 77 77 76 76 76 76 75 75 75 75 75 75 75 76 76 76 76 77 77 76 76 75
60 54 49 51 59 61 67 73 68 69 71 74 74 68 69 72 75 74 73 72 72 72 71 71 73 75 77 77 76 76 75 75 74 74 74 74 74 74 74 74 74 75 75 75 76 76 76 75 75
64 58 50 54 55 59 68 72 71 70 75 78 78 69 67 73 74 71 69 69 68 69 70 70 70 71 70 71 76 76 75 74 74 74 74 73 73 73 72 72 72 73 74 74 74 74 75 75 74
67 53 50 55 57 62 68 65 74 80 75 78 79 75 78 77 72 69 66 64 63 68 66 66 66 66 66 67 70 74 75 74 74 73 74 71 64 63 66 68 71 72 73 74 74 74 74 74 74
62 52 56 67 66 63 67 67 73 72 73 73 77 78 76 76 72 70 66 65 64 64 64 63 63 63 64 69 65 65 65 65 64 65 63 62 61 60 65 68 71 72 73 74 73 73 74 73 65
61 59 68 70 71 67 67 70 77 72 70 75 74 75 71 71 70 70 70 70 70 69 65 63 63 62 62 63 61 61 61 60 60 62 61 60 61 60 60 59 60 60 66 63 65 66 66 65 63
57 65 70 72 74 68 68 74 72 74 74 81 81 76 71 68 68 70 70 69 66 65 64 63 62 61 60 61 60 60 59 59 58 60 60 59 58 58 58 58 60 59 60 61 61 61 62 62 63
60 66 71 72 70 71 73 71 72 74 80 83 78 74 71 71 71 72 72 70 65 63 63 63 61 60 60 60 59 59 59 60 60 59 60 59 58 58 58 60 61 61 60 60 59 60 60 61 62
64 66 68 70 70 72 70 71 73 76 80 79 76 71 71 72 71 69 65 65 63 65 64 62 61 61 60 59 59 59 59 60 59 59 60 61 59 58 59 60 60 58 58 58 59 59 59 60 60
66 60 65 69 71 69 71 66 68 76 77 74 75 72 71 72 73 70 72 68 66 65 64 62 61 61 60 60 60 59 60 60 60 60 61 61 60 59 59 58 57 58 58 58 58 59 59 59 59
58 55 51 64 68 71 67 58 71 77 73 71 74 73 70 70 70 73 69 66 64 63 63 62 67 61 60 59 59 59 60 60 60 60 60 61 61 60 58 57 57 58 58 57 57 57 57 57 58
50 50 52 60 68 66 63 60 72 73 71 69 72 72 70 71 67 67 66 65 63 64 62 61 61 60 60 59 59 60 60 60 60 60 60 61 61 61 58 57 58 58 57 56 56 56 57 57 57
49 48 56 56 62 64 62 61 70 74 72 69 72 75 69 71 69 68 63 63 61 61 61 61 61 60 60 59 59 59 59 59 60 60 60 61 60 61 58 57 58 58 57 56 55 56 57 57 57
59 55 55 61 65 62 60 60 66 72 69 70 71 71 68 67 63 62 63 64 62 60 60 60 60 59 59 58 58 58 58 59 59 60 61 61 62 61 59 58 58 58 56 56 56 56 56 56 57
56 53 53 60 65 60 60 60 66 68 69 71 73 68 66 59 59 61 62 64 62 60 60 60 61 60 60 58 58 58 58 59 59 60 62 63 62 61 61 59 58 57 56 56 56 56 55 56 57
56 53 55 56 61 62 59 56 61 69 67 68 67 65 63 63 59 61 63 61 60 61 60 61 60 60 60 60 59 58 58 59 59 58 59 60 61 62 61 60 59 57 56 55 56 56 57 55 57
52 62 61 58 53 47 57 41 54 60 63 66 69 66 67 62 60 62 63 58 60 60 60 61 61 60 60 60 59 59 57 56 57 57 58 59 61 62 61 60 59 58 57 56 56 57 57 57 56
57 65 61 57 52 48 54 44 51 57 60 62 66 65 62 59 60 61 61 61 61 61 60 60 60 60 60 60 60 59 57 57 57 57 57 58 59 61 61 60 59 58 57 56 57 57 58 57 57
66 57 55 53 48 40 52 47 50 54 59 63 65 67 60 58 58 58 60 61 60 59 59 59 60 60 60 60 60 59 58 57 56 56 56 56 57 59 60 60 59 58 57 58 58 58 58 58 58
60 48 37 31 35 37 52 47 54 61 63 66 67 63 58 57 56 59 61 59 58 58 58 59 59 59 59 61 60 59 58 58 57 56 56 55 56 56 57 58 58 58 58 59 58 58 58 58 59
56 54 39 32 33 40 52 46 55 63 68 67 68 62 58 55 56 60 61 61 59 59 58 60 59 60 59 60 60 58 59 56 56 58 56 56 56 56 57 59 59 60 60 59 59 58 58 58 58
56 49 57 45 44 41 45 52 61 62 61 61 60 59 56 55 57 59 60 59 58 58 58 60 59 59 60 60 59 58 59 58 57 57 57 56 57 58 58 59 59 60 60 59 59 59 60 61 60
56 59 45 41 34 32 42 46 49 57 57 58 58 57 54 54 56 59 59 58 58 59 59 58 60 60 61 60 60 60 62 59 58 58 57 57 57 58 58 59 59 59 59 60 59 60 62 62 62
50 53 47 49 45 35 33 42 55 60 60 59 59 58 56 56 58 60 58 59 59 58 58 58 59 60 60 60 60 63 61 60 59 58 58 58 58 58 59 59 59 59 59 59 59 61 63 62 62
61 56 56 46 41 43 43 49 61 61 60 61 60 60 56 57 59 60 60 58 57 57 58 58 59 60 61 61 61 62 61 60 59 58 58 58 58 59 60 60 60 59 59 59 60 61 63 62 61

GFSSGP_sfc_temp_015.txt.gz
Temp
76 78 80 77 68 68 66 69 75 75 78 84 84 82 82 83 79 77 86 86 88 87 83 82 78 78 79 78 78 77 77 77 77 77 77 77 77 77 77 76 76 77 77 77 77 77 77 78 78
79 77 81 78 66 58 67 72 73 79 83 85 84 83 81 82 86 88 88 85 88 86 82 84 78 78 78 78 78 77 77 77 77 77 77 77 77 77 77 77 77 77 77 78 78 78 77 77 78
79 82 78 74 67 64 70 74 78 80 83 81 83 85 84 84 86 88 92 85 86 84 84 83 78 78 78 78 78 77 77 77 77 77 77 78 77 77 77 77 77 77 78 79 78 78 78 78 77
82 82 77 67 65 68 70 77 77 80 84 83 84 82 85 90 88 91 90 87 86 86 85 82 78 78 78 78 78 77 77 77 77 77 77 77 77 77 76 76 77 77 78 78 79 79 79 78 77
83 80 70 63 64 70 74 79 78 78 79 83 83 81 83 88 89 88 87 87 87 86 86 84 78 77 78 78 78 77 77 77 77 77 77 77 77 76 76 76 76 77 77 77 78 78 78 78 77
76 77 65 63 66 71 76 81 79 79 81 83 81 81 85 88 87 89 87 86 89 84 83 83 79 77 77 77 77 77 76 76 76 77 77 77 76 76 76 75 75 76 76 77 77 76 77 76 76
73 71 66 64 66 70 74 82 78 81 80 82 85 79 86 90 90 86 86 87 85 84 82 82 83 80 77 77 77 76 76 76 76 76 76 76 75 75 75 75 75 75 75 75 75 76 75 75 75
76 74 64 66 66 69 77 79 82 81 80 86 86 80 81 90 86 84 84 86 84 83 84 82 82 84 82 82 77 76 76 76 75 75 75 75 75 75 74 73 73 73 73 74 74 75 75 75 74
74 68 65 66 66 74 79 78 80 84 82 84 86 86 90 88 81 82 81 82 84 82 82 82 83 83 82 83 81 77 77 76 75 76 75 75 79 78 77 75 72 73 73 73 74 74 74 74 75
72 66 67 74 77 75 77 76 77 77 79 80 82 87 88 87 84 83 81 82 81 82 81 82 81 81 81 82 80 81 81 81 80 79 77 78 77 75 75 74 71 72 73 73 73 73 73 74 79
72 66 73 75 78 77 76 76 81 76 74 81 79 83 87 88 84 82 85 86 86 85 83 80 78 79 80 80 80 80 79 79 77 75 75 75 75 75 75 75 75 75 73 75 75 75 77 77 78
67 73 75 77 79 76 74 78 73 77 78 84 84 85 85 84 84 83 84 85 85 84 82 80 78 76 77 79 78 79 78 76 76 76 74 73 74 73 72 74 75 72 74 72 73 75 73 74 75
66 72 75 76 76 76 76 72 72 75 80 85 85 83 83 84 84 84 84 86 86 82 81 78 77 75 75 74 77 76 75 76 77 75 74 74 74 72 73 72 73 73 75 73 73 73 73 73 74
76 72 73 76 75 75 72 73 75 76 82 82 82 82 84 85 85 84 80 79 80 79 78 77 75 75 75 74 73 74 74 76 75 75 74 72 73 71 73 72 73 73 73 73 73 73 72 73 72
72 66 70 70 72 71 74 68 70 79 82 79 80 82 83 84 86 82 83 78 79 79 77 73 74 74 73 73 74 74 76 75 74 74 72 72 71 71 70 72 72 72 71 71 71 71 71 71 72
65 66 61 72 72 73 71 64 77 82 79 78 79 80 80 82 85 86 84 80 79 78 72 74 76 73 72 72 74 75 75 74 73 73 73 72 71 71 70 71 71 72 71 72 72 72 71 71 72
61 57 57 64 71 71 70 68 77 80 77 75 77 79 80 82 83 82 82 82 77 73 73 73 73 73 72 72 74 73 72 73 73 73 74 72 71 71 70 71 72 70 71 70 70 70 70 69 69
55 54 59 59 69 70 69 67 74 75 75 74 76 78 79 79 81 84 81 79 73 72 72 72 72 72 72 73 71 72 72 73 74 73 73 72 72 71 70 70 68 70 69 70 69 67 69 69 68
63 61 60 66 70 67 67 66 68 74 75 75 75 76 77 78 82 77 75 72 70 71 70 70 70 70 71 72 72 72 72 74 73 73 72 72 72 71 70 66 67 68 68 68 68 67 67 68 68
60 58 59 65 68 66 66 65 70 72 73 76 76 76 77 79 80 75 69 69 70 69 70 70 70 69 71 73 72 75 74 74 74 73 72 72 72 71 70 68 68 68 68 66 66 66 66 66 68
58 56 58 59 65 67 64 61 66 74 74 76 77 78 78 77 77 73 68 68 69 68 69 70 70 70 71 72 72 71 71 72 72 73 73 72 71 70 69 68 68 68 68 67 66 66 66 67 68
53 63 62 60 57 53 64 51 62 68 69 73 76 77 78 79 75 71 68 67 68 70 72 72 71 70 71 71 72 70 72 72 72 71 72 71 70 70 70 69 70 69 70 68 68 68 68 68 66
58 65 61 60 57 57 58 52 60 66 65 70 75 79 79 76 74 70 69 68 70 71 71 71 71 71 71 70 72 72 71 72 71 71 68 69 70 71 70 70 70 69 70 69 68 67 67 70 67
66 63 62 60 58 46 55 54 55 62 66 72 76 79 75 70 68 68 69 70 70 73 72 71 71 70 71 71 71 71 70 69 70 69 70 70 70 70 70 70 70 69 69 69 69 69 68 69 67
63 58 47 44 44 44 59 54 54 68 72 72 75 79 73 68 67 67 68 70 70 70 71 72 72 70 71 71 71 71 70 68 68 69 70 68 67 68 69 69 69 71 70 70 70 69 69 69 68
58 57 50 39 41 50 56 49 56 71 75 75 77 77 72 68 68 69 70 71 71 71 71 72 72 71 71 72 72 71 70 72 72 70 70 69 69 70 69 70 71 71 71 70 70 71 71 69 70
58 54 63 54 53 52 54 57 63 70 71 73 74 70 68 67 67 68 70 71 72 71 71 72 72 72 72 72 71 71 70 68 70 68 68 70 68 69 69 70 70 71 71 70 70 70 69 68 67
64 66 51 55 43 41 51 52 58 65 69 74 72 69 66 66 67 69 70 71 72 72 72 72 73 73 73 73 72 72 71 70 70 69 67 68 68 69 70 70 71 70 70 67 66 64 67 67 67
59 57 58 59 55 46 46 54 67 69 73 75 76 71 68 68 68 70 72 72 73 73 73 72 72 72 72 73 72 72 71 70 70 69 69 69 69 69 70 70 70 70 69 65 66 66 66 66 67
65 60 59 52 46 55 52 55 69 70 73 73 74 70 69 70 70 72 72 72 72 72 73 72 72 73 74 74 73 72 72 71 70 69 69 70 70 70 70 70 70 70 68 66 66 66 65 65 64

GFSSGP_sfc_temp_021.txt.gz
Temp
79 90 98 95 80 83 80 84 94 89 89 96 98 94 94 96 90 83 104 107 107 103 92 85 79 79 79 78 78 78 78 77 78 78 78 78 78 78 78 78 78 78 78 78 78 78 78 78 78
96 96 97 92 79 77 82 91 87 92 96 98 98 97 94 91 102 102 104 106 107 103 92 89 79 79 78 78 78 78 77 78 78 78 78 78 78 78 78 77 77 78 78 78 78 79 78 78 78
92 99 90 86 81 78 79 86 90 93 96 96 95 99 96 93 101 102 105 105 106 102 96 91 78 78 78 78 78 77 77 77 78 78 78 78 78 78 77 78 78 78 78 78 79 79 79 79 78
95 93 90 80 79 87 88 92 94 92 97 97 98 92 100 103 100 104 105 106 106 104 101 88 78 78 78 78 78 78 77 77 78 78 78 78 78 78 77 77 77 78 78 78 79 79 79 79 78
97 92 81 79 81 89 93 95 96 93 94 94 97 91 94 101 105 105 104 104 104 105 103 95 78 78 78 78 78 78 77 77 77 78 78 78 78 77 77 77 77 77 77 78 78 77 76 77 78
85 89 77 76 81 90 93 95 95 94 96 96 93 93 95 105 104 105 105 104 106 105 102 98 80 78 78 78 78 77 77 77 77 77 78 78 77 77 77 77 77 77 77 77 77 77 77 76 76
83 84 78 81 82 86 88 96 93 93 94 95 98 88 97 102 103 104 104 105 104 105 103 100 89 82 78 78 77 77 77 76 76 76 76 77 77 77 77 76 76 76 76 76 76 76 76 76 76
88 85 78 82 80 80 91 92 97 94 93 101 98 87 91 102 106 106 107 108 107 105 105 100 95 90 85 85 78 77 77 76 76 76 76 76 77 76 76 75 75 76 75 75 75 75 75 75 75
92 78 74 79 81 83 94 92 98 98 93 96 98 98 101 104 106 103 103 105 106 105 104 102 100 95 90 90 86 77 77 77 77 77 76 77 83 84 82 79 76 75 74 74 74 74 74 74 75
83 76 78 88 90 88 92 92 94 93 91 92 94 100 103 104 102 100 100 101 103 104 104 103 98 95 93 94 90 84 85 85 84 85 84 83 84 85 84 81 75 75 74 74 74 74 74 75 81
84 76 85 88 92 93 91 91 96 91 87 92 91 95 99 99 99 99 100 102 102 104 105 103 95 94 94 93 93 89 88 87 87 85 85 84 85 85 86 85 83 79 75 80 79 78 78 80 82
80 86 87 89 92 90 89 93 89 91 91 97 97 98 97 96 97 99 100 101 103 103 103 102 98 91 91 95 94 92 90 90 89 88 84 82 83 82 81 84 84 82 83 80 82 82 78 79 80
83 86 89 91 91 91 92 89 88 90 96 98 98 97 95 96 98 100 102 102 102 100 101 102 97 89 88 87 93 91 90 90 89 88 85 83 84 82 83 83 83 83 83 80 76 77 76 74 77
86 87 88 90 90 91 87 87 89 90 94 94 94 94 96 97 98 99 99 98 98 98 99 99 96 89 88 86 87 88 88 90 88 88 86 83 82 82 82 81 78 77 81 81 78 75 76 74 74
86 80 83 85 87 86 90 81 82 91 94 91 92 93 95 97 100 98 99 97 98 98 97 95 95 91 85 85 87 87 88 88 87 87 85 84 81 80 79 81 78 77 75 75 74 76 73 78 80
79 80 71 82 85 87 85 72 84 91 90 89 93 94 95 95 98 99 99 98 97 97 96 95 98 92 86 85 86 87 88 86 88 87 86 82 81 80 79 79 78 76 75 73 70 72 74 73 73
75 66 70 75 86 84 82 76 85 90 88 87 89 92 92 93 95 96 99 98 97 96 95 93 92 91 86 84 86 85 85 86 87 87 86 84 82 81 77 78 76 74 73 74 71 72 70 73 75
65 67 71 71 80 82 79 78 85 89 88 86 89 92 91 91 93 97 98 99 98 96 93 90 89 87 85 85 84 85 85 85 87 86 86 84 83 82 77 78 74 73 72 73 69 71 67 76 72
73 72 71 76 83 78 77 78 83 86 86 86 88 89 89 89 95 97 98 98 91 90 89 86 83 84 84 84 82 83 83 84 85 86 85 84 82 78 75 76 74 72 71 74 73 69 71 71 73
71 69 70 77 82 78 77 76 82 85 85 86 86 88 89 90 92 95 96 92 86 85 83 82 82 82 82 84 83 86 85 86 86 87 84 83 82 81 78 73 73 71 69 70 72 71 69 69 70
70 67 69 70 77 80 76 72 76 82 85 86 87 89 89 89 90 93 95 87 85 82 81 81 81 80 81 83 84 84 84 85 83 83 83 82 81 77 76 75 72 71 70 68 70 70 68 65 68
64 76 73 71 69 62 76 61 71 78 80 83 85 88 89 91 92 94 94 85 83 83 82 81 80 78 82 82 81 79 81 80 84 84 85 83 81 80 76 75 75 72 70 71 72 71 70 69 66
70 78 74 73 67 67 68 64 69 77 75 79 84 87 89 91 92 94 92 86 85 83 82 80 78 79 80 80 82 80 80 83 84 84 80 77 78 77 77 76 75 73 73 72 72 72 70 69 68
78 75 74 73 69 57 65 64 66 72 76 80 85 88 90 92 94 94 90 86 83 84 82 79 78 78 79 80 80 79 79 79 81 79 77 75 72 74 76 79 77 75 74 74 74 72 72 70 70
75 67 57 53 54 54 69 65 67 77 82 83 84 87 91 92 91 88 84 83 82 81 80 80 79 77 79 80 79 80 79 78 76 77 73 74 73 71 73 77 75 75 75 75 74 74 73 71 71
68 67 59 46 52 58 70 61 70 83 85 87 88 89 89 88 88 85 84 83 83 81 81 81 79 78 79 80 80 80 80 80 78 76 78 71 76 73 77 76 75 76 76 76 76 73 73 74 72
67 64 73 64 69 64 69 72 79 83 83 84 86 87 87 86 84 84 84 84 83 82 81 80 80 80 80 80 80 79 79 79 77 76 77 75 75 77 78 76 76 76 77 76 74 72 72 73 73
72 77 62 66 52 52 64 67 68 76 80 83 84 85 86 84 84 85 84 83 84 83 82 82 82 80 81 81 81 81 79 78 78 77 77 73 76 79 77 76 75 75 75 74 72 69 71 71 70
67 67 68 69 68 58 56 65 80 79 81 82 86 87 84 83 85 85 85 85 85 84 84 81 82 81 81 81 81 77 78 78 79 76 76 74 75 77 77 78 77 76 75 72 70 71 71 67 64
72 69 68 62 59 67 67 65 83 83 86 86 88 87 86 86 86 87 86 85 84 83 83 82 82 82 82 82 82 80 79 77 76 73 74 78 76 78 79 79 78 74 72 72 72 69 71 67 65

GFSSGP_sfc_temp_024.txt.gz
Temp
78 83 86 90 75 77 72 80 92 86 90 97 97 93 91 94 89 79 101 105 100 89 83 81 79 79 79 78 78 78 77 77 78 78 78 78 78 78 78 78 78 78 78 78 78 78 78 78 78
88 90 88 85 71 69 75 88 87 91 94 98 97 96 93 89 100 98 99 104 101 88 82 82 78 78 78 78 78 77 77 77 77 78 78 78 78 78 78 78 78 78 78 78 78 79 79 78 78
85 94 82 77 74 69 75 83 82 92 96 95 94 99 95 92 99 99 103 104 100 90 86 83 78 78 78 78 78 77 77 77 77 78 78 78 78 78 77 77 77 78 78 78 79 79 79 79 78
85 87 85 71 72 82 84 85 91 86 96 97 96 90 99 102 100 103 105 106 102 97 92 83 78 78 78 78 78 77 77 77 77 78 78 78 78 78 77 77 78 78 78 78 79 79 78 78 78
88 86 74 73 76 83 90 94 95 90 89 95 96 90 90 99 104 105 103 104 102 101 96 83 78 78 78 78 78 77 77 77 77 78 78 78 78 77 77 77 77 77 77 78 78 78 77 77 77
79 83 69 69 76 85 91 96 93 92 94 95 94 92 93 103 101 102 104 101 104 101 94 83 79 78 78 78 78 77 77 77 77 77 77 78 77 77 77 77 77 77 77 77 77 77 76 76 76
77 76 71 75 78 83 90 96 90 91 92 93 97 88 94 98 101 102 102 102 102 102 96 83 81 79 78 77 77 77 77 77 77 77 77 77 77 77 77 77 76 77 76 76 76 76 76 76 75
82 78 72 77 76 79 91 93 94 91 90 100 99 87 88 98 104 105 105 105 105 102 101 86 82 82 79 79 77 77 77 76 76 76 76 76 76 76 77 76 75 76 76 76 75 75 75 75 74
88 71 68 72 76 81 91 89 96 99 94 95 97 96 98 103 105 103 101 102 103 103 100 90 87 84 82 82 80 77 77 77 76 76 76 75 76 78 79 78 77 77 76 75 74 74 74 74 74
79 71 73 82 85 84 88 89 92 90 90 90 92 98 102 103 101 98 97 97 98 100 101 98 92 85 84 88 81 78 78 78 77 77 77 76 77 77 81 78 77 75 75 75 75 74 74 74 73
80 73 80 84 87 89 87 88 92 88 85 90 89 94 99 99 96 96 98 98 98 99 100 98 87 85 86 87 84 79 80 79 78 77 77 77 79 77 78 77 76 73 74 73 74 73 72 73 74
74 81 83 85 88 87 85 90 88 90 90 96 96 97 97 96 95 95 96 98 98 97 95 95 88 84 84 87 86 81 82 80 79 79 78 77 76 75 75 76 76 72 73 72 73 72 71 71 75
78 80 85 88 88 88 90 87 87 88 94 97 98 97 96 95 95 95 97 98 96 92 93 94 87 83 83 82 85 83 82 82 81 80 79 78 76 74 76 76 77 76 74 73 73 73 73 72 73
82 82 84 87 88 89 86 87 88 90 94 94 95 94 95 95 95 94 94 92 92 92 91 94 86 82 83 82 81 80 81 82 82 80 79 77 76 74 76 75 74 74 74 74 73 72 71 70 71
83 77 81 84 85 84 88 80 82 90 92 91 91 93 94 94 97 94 94 90 93 91 92 91 88 82 81 81 81 82 82 82 80 79 78 77 76 75 75 74 74 73 72 71 70 70 69 69 71
75 75 69 80 83 85 83 69 83 90 89 88 90 91 92 93 95 96 94 92 92 90 90 88 93 83 81 80 81 81 82 80 79 78 78 78 77 76 75 74 73 72 71 69 68 69 69 67 69
71 64 67 72 83 82 80 73 84 90 88 86 87 88 90 91 92 92 93 92 90 88 87 87 85 84 81 80 81 81 81 79 78 78 78 77 77 77 74 73 73 73 69 68 67 68 67 66 67
61 63 68 68 78 80 77 76 83 88 88 86 88 88 88 88 91 92 92 92 91 89 87 85 84 83 80 81 80 81 79 78 78 78 78 78 77 78 74 74 72 71 69 68 67 67 67 67 65
70 68 67 74 81 77 75 76 80 85 86 86 86 86 86 87 92 93 92 90 90 87 87 84 83 81 80 79 78 77 76 76 77 78 79 79 79 78 76 73 72 70 68 67 67 66 65 64 65
67 66 66 74 79 77 76 75 81 84 84 86 86 85 86 87 89 91 90 89 84 83 83 81 80 79 79 79 78 78 77 77 78 78 78 78 78 77 74 72 70 70 67 67 65 65 64 63 65
66 65 66 66 74 77 74 70 75 82 85 87 88 88 87 86 85 87 89 86 82 80 79 79 78 78 79 79 78 78 77 77 76 77 76 77 78 77 75 74 70 68 67 65 65 66 64 61 64
61 72 71 69 66 60 74 58 70 77 79 83 85 86 86 87 88 88 88 80 79 79 80 79 78 77 79 77 76 75 74 73 75 75 74 74 78 77 74 72 70 69 68 67 67 67 65 64 61
65 74 71 70 66 65 66 61 67 76 74 78 83 85 86 88 89 89 90 82 82 79 78 78 76 76 77 77 76 75 75 76 76 76 73 74 73 75 76 74 72 70 68 68 67 67 65 64 63
74 70 69 70 68 56 64 62 62 69 74 78 84 87 88 89 90 91 84 82 80 80 78 76 75 75 76 77 76 75 75 75 74 74 72 70 71 72 73 74 71 70 69 69 68 68 67 65 64
69 64 53 50 52 51 67 63 65 74 80 82 83 86 88 90 90 82 80 80 78 77 76 76 75 73 75 76 75 76 75 76 74 74 73 72 68 69 70 71 70 70 70 70 69 67 67 67 65
64 63 55 43 48 55 67 58 66 80 85 86 87 88 89 88 85 82 81 78 79 77 76 76 75 74 76 76 75 76 76 74 75 74 71 70 70 70 71 72 72 72 72 71 70 68 67 68 66
64 58 69 60 63 58 64 69 75 80 82 84 85 86 85 84 82 81 81 79 78 76 76 76 75 75 76 76 75 75 76 73 72 74 74 72 72 71 72 72 72 73 72 71 69 67 67 69 67
66 72 57 62 48 48 60 64 68 74 77 82 82 82 81 82 82 81 80 78 78 78 77 77 77 76 77 76 76 76 73 76 74 74 70 71 72 70 72 72 72 71 71 70 67 67 68 68 66
62 61 64 65 63 53 51 61 79 78 81 79 82 84 81 80 81 80 81 80 80 80 79 77 77 77 76 77 77 74 74 76 70 72 70 72 74 71 73 71 71 71 69 69 68 67 66 64 64
67 63 64 57 54 62 62 63 83 82 84 83 84 84 82 82 82 83 82 80 80 79 79 78 77 78 78 78 75 73 75 73 71 71 71 73 72 73 72 72 71 72 71 69 68 67 67 64 62

GFSSGP_sfc_temp_027.txt.gz
Temp
73 76 76 75 62 62 58 66 78 77 80 86 89 86 78 81 79 66 84 88 83 76 76 78 78 79 79 78 78 77 77 77 77 78 78 78 77 78 78 77 77 77 78 78 78 78 78 78 78
79 82 76 70 59 54 59 75 74 77 85 88 91 85 84 79 89 87 84 85 83 77 75 76 78 78 78 78 77 77 77 77 77 77 78 78 77 78 78 77 77 77 78 78 78 78 78 78 78
79 85 67 64 61 57 61 75 76 80 84 84 88 91 86 83 88 88 88 85 81 78 76 76 78 78 78 78 77 77 77 77 77 77 78 78 77 77 77 77 77 77 78 78 78 78 78 79 78
77 73 71 59 59 69 71 77 82 79 77 75 89 85 88 90 90 91 90 86 82 79 79 78 78 78 78 78 78 77 77 77 77 78 77 77 77 77 77 77 77 77 78 78 78 78 78 78 78
76 68 58 58 64 73 81 85 81 77 80 85 88 84 82 89 93 93 94 89 84 80 80 78 78 78 78 78 78 77 77 77 77 77 77 77 77 77 77 77 77 77 77 78 78 78 77 76 77
67 69 55 54 65 76 82 86 85 82 86 88 87 85 80 90 91 91 93 92 88 83 81 77 78 77 77 78 77 77 77 77 77 77 77 77 77 77 77 77 77 77 77 77 77 77 76 76 76
63 59 56 61 66 73 81 88 82 80 82 84 87 80 81 87 90 91 91 90 90 86 81 77 77 77 77 77 77 77 76 76 76 76 76 76 77 76 76 76 77 76 76 76 76 76 75 75 75
71 62 57 62 64 68 82 85 79 84 84 93 93 79 77 86 90 89 88 86 86 84 79 76 76 77 76 75 77 76 76 76 76 76 76 76 76 76 76 75 75 76 76 76 76 75 75 75 74
78 56 54 62 65 71 83 81 88 93 87 87 88 85 90 94 92 87 83 86 85 85 79 77 75 75 75 75 76 76 77 76 76 76 76 74 70 70 72 74 75 76 76 76 75 75 74 74 74
71 58 61 71 75 75 79 81 85 85 84 82 86 91 94 95 86 84 80 79 79 84 78 77 75 75 74 78 75 73 74 74 73 73 71 70 69 67 74 75 76 76 77 76 75 75 75 74 67
71 63 71 74 78 80 79 80 86 82 78 83 82 88 92 90 85 85 83 80 82 85 82 79 78 76 76 78 75 73 73 72 71 70 68 69 71 69 70 68 71 69 74 69 72 70 70 68 67
66 73 74 76 80 79 78 83 80 82 81 89 88 89 88 85 83 83 83 84 84 85 83 80 80 77 77 79 75 73 73 72 71 71 69 69 69 67 68 67 67 66 66 66 66 66 66 66 68
69 72 76 79 79 80 82 79 80 81 87 91 90 90 87 83 83 83 84 84 83 80 83 80 79 79 79 79 76 74 74 73 73 72 72 71 69 67 68 68 67 66 66 65 65 68 68 66 68
72 74 75 77 77 79 78 79 81 83 86 86 86 83 84 83 83 83 81 82 80 81 82 79 78 79 80 80 77 76 76 75 74 74 73 72 70 68 67 67 67 67 66 65 65 65 66 65 66
71 66 71 75 77 75 80 73 75 84 85 84 84 86 87 84 84 82 83 80 80 81 81 77 75 77 80 79 76 76 77 76 76 74 73 72 70 68 68 66 66 66 65 66 65 65 65 65 66
63 63 57 69 74 77 76 63 76 82 82 80 84 86 86 81 83 82 82 78 80 80 79 78 82 77 74 77 72 75 75 73 73 72 72 72 70 70 68 66 66 66 65 64 64 63 63 63 62
59 51 56 62 74 74 71 66 77 82 81 80 82 83 85 85 80 79 81 83 81 79 77 77 74 75 75 71 72 72 72 71 71 67 68 71 71 72 68 66 66 66 64 64 63 62 62 61 61
51 53 58 58 68 71 68 68 75 80 80 79 81 80 78 80 78 82 81 81 80 79 76 75 72 73 72 73 71 70 70 70 67 68 67 70 71 71 68 66 66 65 64 63 62 62 62 61 61
61 59 58 63 70 68 66 67 72 77 75 76 79 74 78 75 79 80 81 80 76 74 73 73 71 71 74 73 71 68 67 68 69 68 71 70 70 70 68 66 65 64 64 63 62 62 61 60 61
58 55 56 64 71 68 67 66 73 76 76 79 79 78 74 73 76 79 76 76 73 72 72 71 71 72 72 74 69 69 68 67 71 68 70 70 70 70 68 66 64 64 62 62 62 62 60 60 60
56 54 56 56 64 68 64 60 66 73 74 76 76 75 75 74 73 76 79 73 70 70 69 70 69 70 70 71 70 68 68 67 66 66 66 68 71 70 68 66 63 64 62 61 60 61 60 58 59
51 62 62 60 57 49 62 47 61 67 70 74 78 75 74 75 75 76 76 68 69 68 69 69 70 70 70 70 68 67 65 63 65 66 66 67 71 72 69 67 65 63 62 61 61 62 60 59 57
55 64 62 61 57 55 57 49 59 63 63 65 70 72 72 74 74 75 75 71 69 69 67 68 69 69 69 69 68 66 65 65 66 65 65 65 66 68 68 66 65 63 62 62 62 61 60 59 58
65 60 59 59 55 43 54 53 55 60 64 67 71 73 76 76 75 73 72 71 69 69 67 68 67 67 68 68 68 67 66 65 64 63 62 62 63 64 66 68 64 63 62 62 62 62 61 60 59
58 50 39 38 40 40 57 53 57 62 69 72 71 72 74 74 69 70 69 69 68 67 68 67 66 65 68 67 67 67 66 66 65 63 62 62 62 62 63 64 63 63 64 64 63 62 62 61 60
52 52 41 31 36 43 57 47 56 70 74 77 78 74 71 70 70 70 69 69 68 68 68 67 66 65 66 67 66 67 67 65 64 64 62 62 61 62 64 64 65 66 67 66 64 63 62 63 61
52 46 58 48 50 44 50 58 66 71 72 73 72 74 68 69 70 69 68 68 68 68 66 66 66 65 66 67 66 66 65 65 64 64 64 62 63 64 65 65 66 66 66 65 64 62 64 62 63
53 59 44 48 35 34 47 51 54 63 68 72 69 66 68 69 69 69 69 68 68 68 67 66 66 66 66 66 66 67 66 66 65 64 63 64 63 65 65 65 66 65 65 64 64 63 64 61 61
48 49 50 48 48 40 38 47 65 66 68 68 67 70 69 69 69 69 69 70 70 69 68 66 66 66 66 67 66 68 66 66 66 65 67 64 64 68 65 66 65 65 64 64 63 63 63 62 61
53 48 52 42 43 49 45 48 69 69 67 69 71 71 70 71 71 71 71 71 69 69 67 66 66 66 67 67 67 70 65 64 64 64 67 64 65 65 66 66 67 66 64 64 66 64 63 62 61

GFSSGP_sfc_temp_030.txt.gz
Temp
73 74 73 73 62 58 54 63 73 74 75 78 84 83 77 76 75 64 79 84 79 76 75 77 78 78 78 78 78 77 77 77 77 77 78 78 77 78 77 77 77 77 78 78 78 78 77 77 78
75 78 74 68 56 51 55 68 70 73 76 81 84 82 79 76 83 82 80 81 80 76 74 75 78 78 78 78 77 77 77 77 77 77 78 77 77 77 77 77 77 77 78 78 78 78 78 78 78
77 81 65 61 56 53 57 69 73 75 79 81 81 88 82 78 85 83 81 80 77 74 74 74 78 78 78 78 77 77 77 77 77 77 78 78 77 77 77 77 77 77 78 78 78 78 78 78 78
74 70 66 57 56 63 66 75 77 75 78 81 83 81 84 87 87 87 83 80 76 74 75 77 78 78 78 78 77 77 77 77 77 77 77 77 77 77 76 77 77 77 78 78 78 78 78 78 78
71 65 55 54 59 68 75 79 79 75 76 78 85 80 79 85 88 85 82 82 77 75 76 76 78 78 78 78 77 77 77 77 77 77 77 77 77 76 76 76 77 77 77 77 78 78 77 76 76
65 64 52 53 61 71 75 79 79 77 78 80 80 79 77 84 86 84 84 81 81 77 76 76 78 78 77 77 77 77 76 76 77 77 77 77 76 76 76 76 77 77 77 77 77 77 76 76 75
60 55 52 57 62 67 75 82 78 78 79 81 85 76 77 83 87 87 85 84 81 79 77 75 76 77 78 77 77 76 76 76 76 76 76 76 76 76 76 76 76 77 76 76 76 76 76 75 75
66 59 52 56 59 62 76 78 80 79 83 90 89 75 73 84 87 83 85 83 81 79 77 75 75 76 75 75 77 76 76 76 76 76 76 76 76 76 76 75 75 76 76 76 76 76 75 75 74
72 54 50 57 61 67 76 74 85 88 84 86 86 85 87 90 87 83 78 80 74 79 76 75 74 75 74 74 76 76 77 76 76 76 76 74 71 71 73 74 74 76 76 76 76 75 75 74 74
63 54 56 66 70 68 74 75 78 81 79 81 84 85 89 91 83 82 81 80 79 78 74 73 73 73 74 76 74 74 74 73 73 73 72 71 68 67 72 72 76 76 76 76 75 75 75 74 66
63 60 67 70 73 75 73 75 80 77 73 78 79 84 87 85 85 80 81 82 83 79 77 74 74 73 73 75 73 73 72 71 71 70 69 69 69 67 68 66 68 70 74 69 72 70 68 67 65
59 69 70 71 75 74 72 77 75 78 77 83 83 84 84 83 82 81 79 81 82 82 77 76 75 73 72 74 73 72 71 70 70 70 68 68 67 65 65 65 65 65 65 65 65 64 64 65 66
63 67 71 72 73 74 76 73 74 76 82 86 87 85 82 79 79 79 79 80 81 79 78 76 75 74 73 74 72 72 71 71 70 69 68 68 66 65 65 65 64 64 63 63 63 63 64 63 65
63 64 67 71 71 73 72 73 76 78 84 84 83 82 80 79 79 78 77 77 77 79 78 73 75 74 74 75 73 72 72 71 70 70 69 69 69 67 66 65 64 64 63 63 63 63 63 63 64
65 58 64 67 69 69 75 68 70 80 83 81 81 79 79 80 81 78 80 77 77 78 77 72 73 75 74 75 74 72 72 71 70 70 70 70 69 68 68 65 65 65 63 63 63 63 62 62 63
56 55 53 64 68 69 69 59 74 78 76 75 79 82 84 85 85 84 80 76 76 74 75 75 78 74 74 76 74 74 73 72 72 70 70 71 70 69 66 64 64 64 63 63 62 61 61 61 61
51 48 51 57 69 68 67 62 72 76 76 73 75 78 80 82 83 77 81 79 77 74 76 74 71 72 73 74 72 73 72 72 69 67 69 70 70 69 67 65 65 64 63 62 62 61 60 60 60
46 49 53 53 63 67 64 63 71 75 76 75 77 79 79 80 80 83 81 79 76 74 72 70 70 69 70 69 67 67 67 66 65 67 67 69 70 69 65 65 64 63 62 62 61 61 61 60 60
55 53 53 57 64 63 62 63 67 72 73 70 72 75 76 75 79 80 78 77 74 72 71 70 68 67 70 70 69 68 67 66 65 65 67 67 67 68 66 64 64 63 62 62 61 60 60 60 61
52 49 49 56 63 62 61 61 67 71 72 73 74 74 75 74 74 74 73 74 72 72 71 67 67 69 70 73 70 67 67 65 67 65 68 69 68 68 66 65 63 62 61 60 60 59 58 59 61
51 49 50 50 58 62 57 55 60 67 69 71 71 73 72 74 74 72 74 72 68 68 68 67 68 68 68 68 69 66 66 65 65 64 64 65 68 67 66 64 62 62 61 60 59 59 58 56 57
45 56 56 54 51 43 57 43 57 64 66 69 71 69 73 74 70 71 72 65 67 66 66 67 68 68 69 70 69 70 63 62 63 64 63 64 67 67 67 65 63 62 61 60 60 60 58 57 56
49 58 56 55 49 48 50 42 55 59 60 65 70 73 76 74 70 71 72 68 65 65 65 67 67 68 67 67 69 68 64 63 61 62 62 63 64 66 67 65 63 62 61 61 60 60 59 58 56
59 54 53 53 46 36 48 47 50 55 60 63 68 70 73 71 70 65 65 66 64 64 66 66 66 64 66 67 65 65 64 61 61 61 60 60 61 62 64 65 62 62 61 61 61 61 60 59 58
51 41 33 30 32 36 51 46 52 58 62 65 68 70 71 69 65 62 63 64 64 65 65 65 66 63 65 65 64 64 63 62 61 61 60 61 60 61 61 62 61 61 62 63 62 61 60 60 58
45 42 32 26 28 38 52 42 50 65 71 74 73 72 68 63 61 62 63 63 64 65 65 64 65 63 65 64 63 63 63 63 61 61 60 60 60 61 62 62 62 63 64 64 63 61 61 60 60
44 41 48 39 45 36 44 50 58 68 69 71 71 66 61 60 61 62 63 63 64 63 63 64 64 63 64 63 63 62 62 62 61 61 61 60 61 62 63 63 63 64 65 64 63 61 61 60 60
48 51 37 37 30 28 40 44 49 56 60 65 65 61 60 60 62 62 63 63 63 63 63 63 63 63 63 63 63 63 63 63 62 62 61 61 61 63 63 63 63 63 63 64 63 62 62 61 59
42 40 42 41 39 36 31 40 56 60 62 65 63 64 61 62 63 63 63 64 64 64 64 62 63 63 63 63 63 63 63 63 62 62 61 62 61 62 63 63 64 63 63 63 61 62 63 61 61
47 43 41 33 34 40 39 44 64 64 64 66 64 65 63 64 63 64 64 65 65 64 64 62 62 63 63 64 63 63 62 62 61 62 62 62 62 62 64 64 64 64 63 62 62 62 62 61 61

GFSSGP_sfc_temp_033.txt.gz
Temp
72 72 71 71 60 55 49 57 68 70 72 76 75 76 76 76 73 65 76 80 77 73 74 77 78 78 78 78 78 77 77 77 77 77 77 77 77 77 77 77 77 77 78 78 78 77 77 77 77
73 74 72 65 53 48 51 63 68 72 75 76 79 78 74 73 81 77 79 78 77 74 73 75 78 78 78 78 77 77 77 77 77 77 77 77 77 77 77 77 77 77 78 78 78 77 77 77 77
76 78 65 60 54 51 53 67 69 74 76 77 77 82 80 77 83 80 78 77 74 73 74 74 78 78 78 78 77 77 77 77 77 77 77 77 77 77 77 77 77 77 78 78 78 78 77 77 77
74 70 66 56 54 59 62 67 71 73 77 77 78 76 80 86 85 86 79 78 75 73 74 75 77 77 78 77 77 77 77 77 77 77 77 77 77 77 76 77 77 77 77 78 78 77 77 77 77
70 63 52 52 56 63 70 73 73 72 72 75 79 77 75 83 86 81 79 79 76 73 74 75 77 78 78 78 77 77 77 77 77 77 77 77 77 76 76 76 77 77 77 77 77 77 77 77 76
63 62 49 51 58 67 71 74 75 74 75 75 76 76 75 82 82 80 80 78 79 76 74 75 77 77 77 77 77 77 76 76 77 77 77 77 76 76 76 76 76 77 77 77 77 77 76 76 75
59 55 51 54 58 63 72 73 71 74 76 76 78 73 74 79 83 80 80 79 77 77 75 75 76 76 77 77 77 76 76 76 76 76 76 76 76 76 76 76 76 76 76 76 76 76 76 75 75
63 57 50 55 58 61 74 73 74 74 77 87 83 73 70 83 84 81 76 75 74 74 75 74 74 75 75 75 77 76 76 76 76 76 76 76 76 76 76 75 75 76 76 76 76 76 75 75 74
66 51 49 55 59 63 73 72 80 83 80 80 81 79 83 84 82 79 75 74 71 75 71 72 73 74 74 74 75 76 77 76 76 76 76 74 71 71 72 74 74 76 76 76 76 75 75 75 74
60 51 54 63 68 64 70 70 74 76 76 75 77 84 88 85 81 79 75 76 73 76 73 72 72 73 73 75 73 73 73 73 72 72 71 71 68 67 71 72 75 75 76 76 75 75 75 74 66
59 56 66 69 70 71 71 69 76 74 71 76 76 79 83 84 79 77 78 78 78 81 77 73 72 72 72 74 72 72 71 71 70 69 68 68 68 67 69 66 68 68 73 69 72 70 68 66 64
56 63 67 69 71 70 70 74 71 72 74 80 82 82 80 80 79 78 76 76 78 76 77 75 73 72 72 73 72 72 71 70 69 69 67 67 66 65 64 64 63 65 67 67 66 65 65 64 65
59 62 65 68 69 70 72 69 70 72 78 81 82 82 79 78 77 76 77 76 76 75 74 73 73 72 72 71 71 71 70 71 70 68 68 68 66 65 64 64 63 64 64 64 63 63 63 62 63
59 62 64 66 67 66 67 69 71 74 79 80 80 79 78 76 77 76 75 75 75 76 75 73 71 72 71 71 71 71 71 71 69 68 68 68 67 65 64 64 64 63 62 63 63 62 62 62 62
59 54 61 62 62 62 69 64 65 74 78 77 78 79 80 75 76 74 76 75 78 78 77 69 72 71 70 71 72 71 71 70 69 68 67 68 67 65 65 65 62 63 63 62 62 62 61 61 62
53 51 49 61 64 65 67 56 68 74 74 74 76 75 77 79 77 78 78 75 75 74 73 72 75 71 70 71 72 72 71 69 69 68 67 68 68 67 64 65 64 63 62 62 61 61 60 60 60
48 45 47 55 65 64 63 58 68 74 73 71 73 75 75 75 74 75 77 79 78 75 75 72 68 69 71 71 72 70 68 68 68 66 67 68 68 67 66 65 64 63 62 61 61 60 60 59 59
43 44 48 48 58 62 59 59 67 70 69 68 69 72 74 76 77 82 82 80 75 72 70 69 67 66 68 67 65 65 66 65 66 67 67 68 68 68 65 64 63 63 61 61 60 60 59 59 60
49 48 46 53 60 59 58 59 63 68 69 69 72 74 74 74 75 77 78 77 71 69 68 68 67 64 67 66 66 64 65 64 64 66 67 67 67 68 65 63 63 62 62 62 60 59 59 58 59
49 45 44 52 58 55 55 55 61 65 66 69 69 69 69 72 74 75 74 71 69 73 69 66 67 64 68 69 68 64 64 62 65 65 67 67 67 67 65 63 62 62 61 60 59 61 57 58 60
46 44 45 46 53 57 53 51 56 62 64 67 67 69 68 68 71 71 73 70 68 67 67 66 64 65 66 65 65 65 65 64 62 62 63 64 66 65 65 64 62 61 60 60 59 58 58 56 59
41 51 52 50 46 39 52 39 53 59 62 65 66 67 68 70 69 67 71 69 67 68 65 65 65 65 66 67 65 68 67 65 61 62 62 63 65 65 65 66 64 63 61 59 59 60 57 56 55
45 53 50 50 45 40 44 38 51 54 56 61 66 69 71 74 72 70 72 67 66 64 64 64 66 66 66 66 68 66 64 62 61 61 62 61 62 64 65 65 65 62 60 60 60 59 58 57 56
54 49 47 47 41 30 43 41 45 51 57 60 62 64 66 66 66 67 67 64 61 62 64 65 65 63 64 66 65 65 64 61 60 59 59 59 60 61 64 64 62 61 60 60 60 60 59 58 57
47 37 28 26 27 31 46 42 48 52 57 59 60 63 65 67 64 64 62 59 61 62 63 64 64 62 63 63 63 63 62 62 61 60 59 59 59 60 61 61 60 60 61 60 60 59 59 59 57
41 39 29 25 27 33 48 38 47 58 65 68 68 66 65 64 63 61 59 60 62 63 63 63 63 61 63 63 61 61 61 60 60 60 60 60 59 60 61 61 60 61 62 61 61 60 60 60 59
41 36 46 35 37 32 40 46 55 62 63 63 64 64 62 62 57 57 60 62 62 62 61 63 63 62 63 62 61 60 61 61 60 60 60 59 60 61 61 61 61 62 62 62 61 61 62 61 60
45 48 35 32 27 26 35 39 44 52 61 59 60 61 60 56 57 59 61 61 62 62 61 62 64 63 62 61 62 62 61 61 60 60 60 60 59 61 61 61 61 62 62 62 61 61 62 60 58
41 37 39 39 35 28 29 35 50 54 57 58 60 65 58 56 57 59 60 61 61 61 62 62 63 62 61 62 61 61 61 61 60 60 60 60 60 61 61 62 62 62 62 62 61 61 62 61 60
45 42 40 31 32 37 34 38 60 55 56 60 63 65 56 57 58 60 60 61 61 61 62 61 62 63 62 61 61 60 60 60 60 60 60 60 60 61 62 62 63 63 62 61 61 61 62 61 60

GFSSGP_sfc_temp_036.txt.gz
Temp
72 70 68 69 58 53 47 56 63 67 68 72 75 73 72 71 72 63 74 76 74 73 75 77 78 78 78 78 78 78 77 77 78 78 78 78 77 78 78 77 78 78 78 78 78 78 77 77 77
71 72 70 64 54 47 50 59 63 68 72 75 74 76 72 73 78 77 76 76 75 73 74 75 78 78 78 78 78 77 77 77 77 77 78 78 77 77 78 77 78 78 78 78 78 78 77 77 77
73 75 64 58 52 50 54 64 68 71 74 73 73 79 77 75 79 78 76 75 73 72 74 74 78 78 78 78 77 77 77 77 77 77 78 78 77 77 77 77 77 78 78 78 78 78 77 77 77
71 67 64 54 52 57 60 67 67 70 74 76 75 76 78 83 82 82 77 76 74 72 74 76 78 77 78 78 77 77 77 77 77 77 77 77 77 77 76 77 77 78 78 78 78 77 77 77 77
68 62 54 50 54 61 63 69 68 68 71 76 77 75 74 81 82 80 77 77 74 71 73 75 78 77 78 78 77 77 77 77 77 77 77 77 77 76 76 77 77 77 78 78 78 77 77 77 76
60 59 48 51 56 65 65 69 68 69 72 74 75 74 73 80 81 79 77 75 76 73 72 74 78 77 77 78 77 77 76 77 77 77 77 77 76 76 76 77 77 77 77 77 77 77 76 76 75
58 51 49 53 57 61 66 71 69 71 72 74 76 72 74 79 81 78 76 74 74 74 73 73 76 76 78 77 77 77 76 76 76 76 76 76 76 76 76 76 76 76 76 76 76 76 76 75 75
61 54 47 53 57 60 70 69 71 73 73 81 83 71 68 78 79 76 75 73 72 72 73 71 72 74 74 75 77 77 76 76 76 76 76 76 76 76 76 75 75 76 76 76 76 76 76 75 74
63 49 46 53 58 62 69 62 73 79 74 75 79 78 81 80 79 76 72 73 70 73 71 69 70 71 72 73 74 76 77 76 76 76 76 75 72 73 74 74 74 76 76 76 76 76 75 75 74
59 48 53 62 67 64 69 65 69 72 70 71 74 80 83 81 76 76 73 74 72 72 71 70 71 71 71 74 71 73 72 73 73 72 72 72 69 69 71 73 75 76 76 76 76 75 75 75 70
58 55 64 65 69 69 70 68 71 68 66 71 71 75 78 80 76 74 75 75 78 76 74 72 71 70 71 73 71 72 71 70 70 69 69 69 69 70 71 69 71 70 74 71 74 73 72 70 69
52 61 66 67 69 68 67 70 69 70 69 76 77 76 75 76 74 75 76 74 76 75 75 72 71 70 70 73 71 71 70 70 69 69 68 67 68 67 68 67 67 67 68 69 69 69 68 68 68
58 60 63 68 69 69 70 67 67 69 75 78 80 80 77 74 74 73 75 74 74 72 74 73 71 71 71 70 71 70 70 70 70 69 68 68 67 66 66 66 65 65 66 67 67 67 67 66 67
57 60 62 63 64 66 65 66 65 67 74 74 76 76 77 75 74 74 72 72 72 72 72 74 69 71 71 69 70 70 71 70 69 68 68 69 67 65 65 65 64 64 65 66 66 66 65 65 66
57 53 56 58 60 62 67 61 63 72 74 72 74 76 77 78 74 73 74 72 72 72 73 70 69 69 69 70 70 70 70 70 69 69 68 68 67 65 65 64 63 64 64 65 65 65 64 64 65
51 50 48 60 59 62 65 55 68 71 72 71 73 74 75 76 72 73 73 71 71 69 69 70 72 68 69 70 70 71 70 69 68 68 68 68 67 66 64 64 64 65 64 64 63 64 63 63 63
45 46 44 51 62 62 61 57 66 69 69 69 69 68 70 72 71 70 72 72 71 71 71 70 65 67 68 69 69 69 67 67 67 66 67 67 67 67 65 64 65 65 64 63 63 63 63 62 62
40 41 46 46 54 59 55 57 64 66 66 67 68 68 67 68 69 72 73 73 74 71 68 66 65 65 65 65 65 65 65 66 66 66 66 67 68 67 65 65 64 64 63 63 62 62 62 62 62
47 44 42 48 55 54 54 56 61 64 64 65 67 69 70 71 76 76 71 72 70 67 65 65 64 62 66 65 64 63 65 66 65 66 67 67 67 67 66 65 65 64 63 64 63 62 62 61 62
46 41 41 48 54 51 50 49 55 58 60 63 65 66 65 65 66 69 69 71 67 67 67 64 62 62 66 66 64 65 64 65 65 66 67 68 67 67 66 65 64 64 63 63 62 62 61 60 61
43 41 41 43 51 53 49 48 53 59 59 63 64 66 66 67 68 70 69 67 67 65 65 65 61 62 64 64 64 62 62 62 62 63 64 66 67 67 66 65 64 63 63 62 61 61 60 58 60
39 48 48 47 42 36 48 35 49 56 58 60 61 63 65 63 65 67 67 66 69 70 65 64 62 63 64 65 63 64 62 62 62 63 64 64 67 66 66 65 64 64 63 62 61 61 60 59 58
42 51 48 47 41 38 42 35 48 50 51 53 60 65 67 69 68 66 66 68 72 65 63 63 63 64 65 65 66 64 62 61 61 62 62 63 64 65 66 66 65 64 63 62 62 61 60 59 59
52 46 44 42 37 29 39 39 43 48 53 57 58 61 62 62 63 64 65 63 62 61 62 64 63 63 64 65 64 64 63 62 63 61 61 61 61 63 65 66 64 63 62 62 61 61 61 60 60
44 35 26 24 24 28 43 38 45 49 54 55 57 59 61 62 62 62 61 61 59 62 64 64 63 62 63 63 63 64 63 63 63 62 60 60 60 61 62 63 62 62 62 62 62 61 61 61 60
38 37 26 24 24 28 43 35 43 55 61 61 62 60 60 61 60 60 60 58 62 64 64 63 63 61 62 63 62 63 63 63 61 61 61 60 61 62 63 63 63 63 63 63 62 62 61 61 61
39 33 43 33 34 29 34 42 50 57 60 59 59 60 60 60 58 57 59 61 63 62 62 62 62 61 62 62 62 61 61 62 61 61 61 61 61 63 62 63 62 63 64 64 63 62 62 61 60
43 46 33 29 25 25 32 35 40 49 52 56 58 57 59 59 55 60 61 62 61 61 61 61 62 62 61 62 63 62 61 62 61 61 60 61 61 62 62 63 63 64 64 64 63 62 63 61 60
41 35 36 34 31 27 27 33 46 49 52 53 54 57 57 57 57 60 61 61 60 60 61 61 62 62 61 62 62 62 61 61 61 61 61 61 61 62 63 63 64 64 64 64 63 63 64 62 60
42 39 38 30 30 34 30 33 52 51 51 53 57 59 55 54 59 61 61 61 60 60 61 61 62 62 62 62 62 61 61 61 60 61 61 62 62 63 63 64 65 65 64 64 63 62 63 60 60

GFSSGP_sfc_temp_042.txt.gz
Temp
81 91 95 91 79 80 78 80 89 85 86 92 93 91 93 96 91 86 100 104 106 100 95 86 79 79 79 79 79 79 78 78 78 78 78 78 78 78 78 78 78 79 80 80 79 79 79 79 79
93 89 92 91 75 73 77 87 83 89 91 93 92 91 91 89 102 100 102 101 103 100 94 91 79 79 79 79 78 78 78 78 78 78 78 78 78 78 78 78 78 79 79 79 79 79 79 79 78
91 92 87 82 77 74 80 86 88 89 92 91 91 95 93 91 99 103 107 101 102 98 96 92 79 79 79 79 78 78 78 78 78 78 78 78 78 78 77 78 78 79 79 79 79 79 78 78 78
90 89 88 75 74 81 85 86 90 88 91 93 91 87 93 98 99 107 103 103 102 101 99 89 79 79 79 79 78 78 78 78 78 78 78 78 78 77 77 77 78 79 79 79 79 79 78 78 78
91 89 76 73 76 83 88 90 88 86 88 91 93 87 91 100 102 107 104 104 104 103 102 97 78 78 79 79 78 78 78 77 78 78 78 78 78 77 77 77 78 79 79 79 79 78 78 77 77
79 84 73 71 77 83 88 91 90 89 91 92 90 91 95 104 103 106 107 104 107 103 99 98 80 78 78 78 78 78 77 77 77 78 78 78 77 77 77 77 77 78 78 78 78 78 77 77 77
75 72 70 74 75 77 83 91 88 89 91 92 97 89 97 101 106 106 106 104 104 102 98 96 91 83 78 78 77 77 77 77 77 77 77 77 77 77 77 77 77 77 77 77 78 77 77 77 76
82 80 73 77 74 75 86 88 90 91 90 96 96 90 91 100 102 104 106 104 103 101 100 96 93 92 89 88 77 77 77 77 77 77 77 77 77 77 76 76 76 77 77 77 77 77 77 76 76
84 72 71 73 75 75 84 85 94 95 92 93 95 95 96 97 102 103 102 103 104 102 99 97 97 95 93 93 89 78 77 77 76 77 77 77 85 84 84 80 78 77 77 77 77 76 76 76 75
76 71 73 83 83 76 81 86 90 87 89 90 92 96 97 99 99 100 100 100 101 101 100 99 94 93 93 94 91 87 88 87 85 85 84 84 85 87 87 84 77 76 76 76 76 76 76 77 89
77 71 81 82 83 81 79 84 91 86 84 91 91 93 96 95 96 97 101 102 102 103 103 100 92 90 90 92 93 91 91 90 88 86 85 85 87 88 87 88 84 83 78 84 81 82 84 86 89
71 78 79 81 84 78 77 82 84 88 89 96 93 93 93 93 95 97 98 101 102 103 100 100 95 87 87 93 94 93 92 92 90 89 85 85 86 86 86 87 88 84 88 84 85 86 86 86 86
73 76 80 81 80 81 81 78 80 84 91 95 96 94 92 93 93 95 97 98 99 98 99 100 98 90 87 85 93 93 91 93 91 90 87 86 87 85 86 86 89 88 89 88 86 86 86 85 85
77 77 78 80 81 79 76 78 81 83 89 88 89 90 93 93 94 94 93 92 95 96 97 99 97 92 90 88 87 90 89 92 91 91 89 84 86 85 86 85 86 88 89 88 87 86 85 85 85
75 69 73 76 78 77 78 71 74 84 88 85 86 88 90 92 94 93 94 92 92 95 96 94 95 95 90 89 89 89 92 91 91 91 88 86 83 84 83 85 85 87 86 85 85 84 84 84 84
66 68 62 74 76 77 74 64 78 86 85 84 85 88 89 91 93 95 95 95 94 93 93 94 97 97 92 89 90 91 92 91 90 90 89 84 82 82 81 84 85 87 86 85 84 82 81 82 84
65 58 63 68 79 76 71 66 77 83 84 84 86 88 89 91 93 93 93 93 93 92 91 92 93 93 91 89 89 89 88 88 90 90 89 85 82 81 82 83 85 83 84 84 81 79 81 82 79
57 60 63 63 73 75 71 69 76 81 84 82 84 86 87 89 90 93 93 93 92 91 90 89 90 90 87 88 87 90 90 89 89 88 88 85 82 81 80 84 83 81 81 80 80 79 83 78 78
62 61 61 67 72 70 69 70 74 79 80 81 82 83 84 86 90 92 91 91 90 89 88 87 88 86 86 88 88 88 87 88 88 88 85 83 82 81 79 84 79 79 78 79 78 80 77 76 81
59 55 57 64 67 67 67 67 73 77 79 81 81 82 83 85 87 88 89 89 88 87 87 87 87 87 85 88 86 90 89 90 88 86 82 82 81 79 77 80 79 78 80 77 78 77 78 79 75
55 53 55 57 64 67 64 61 66 75 78 79 80 81 82 82 83 84 86 87 89 88 87 87 86 85 84 85 86 84 86 82 78 80 80 78 77 75 76 78 81 78 81 80 77 78 77 78 75
49 60 58 57 55 50 64 49 64 70 72 75 78 80 82 83 84 85 86 86 87 88 90 89 88 85 85 83 85 81 83 80 81 82 77 74 75 76 80 80 81 79 82 79 79 81 78 75 70
53 60 57 57 54 55 56 53 61 70 67 72 77 79 81 83 85 86 88 88 90 90 89 89 87 84 84 83 84 82 83 86 85 85 72 73 74 77 82 81 80 80 83 80 79 77 76 74 74
61 57 57 57 54 45 54 54 57 63 68 73 78 81 82 84 87 88 88 88 89 91 89 86 83 82 83 82 81 81 82 83 84 80 75 76 78 80 81 82 81 81 81 79 77 77 75 75 77
57 50 40 39 41 40 56 53 57 68 72 74 76 77 82 84 86 87 87 89 89 88 87 86 84 81 81 81 81 82 81 81 79 79 83 80 81 81 79 80 80 81 79 79 78 75 76 75 75
51 49 41 32 39 45 55 48 57 70 75 77 79 79 81 83 85 85 87 87 89 88 86 83 83 81 81 82 81 82 81 84 84 84 83 84 84 83 79 81 80 80 79 78 77 78 78 77 73
49 43 56 44 45 43 54 57 64 70 71 73 76 77 77 79 81 82 86 85 86 85 82 83 83 82 82 82 81 81 83 82 83 81 81 84 83 82 80 80 79 79 79 78 77 79 76 75 73
55 57 43 47 31 34 50 52 54 63 66 72 72 72 76 79 79 81 82 80 82 81 80 83 83 82 82 81 82 82 81 81 80 81 81 80 80 81 79 79 79 78 78 78 77 77 75 73 72
49 49 45 44 45 37 44 52 67 67 68 67 70 74 76 78 76 77 74 71 72 82 84 82 82 81 81 82 81 81 81 81 81 80 80 79 79 79 79 79 79 78 78 78 76 76 75 74 68
51 45 38 36 37 48 44 50 69 68 70 69 70 73 77 79 74 68 68 69 80 82 82 82 82 82 82 82 81 80 80 81 79 79 79 79 78 80 80 80 80 80 79 78 76 73 75 72 65

GFSSGP_sfc_temp_045.txt.gz
Temp
82 93 100 96 80 83 79 84 96 93 94 99 100 97 95 99 93 85 108 112 111 107 94 87 79 79 79 79 79 78 78 78 79 79 79 79 79 79 79 79 79 79 80 80 80 80 80 79 79
94 97 96 90 77 75 81 92 89 93 98 99 98 97 95 95 104 100 103 108 110 105 94 92 79 79 79 79 79 78 78 78 78 78 78 78 78 78 79 78 79 80 80 80 80 80 79 79 79
92 97 88 83 79 75 82 93 93 97 97 96 94 99 97 96 104 105 108 108 108 103 97 92 79 79 79 79 79 78 78 78 78 78 78 78 78 78 78 78 79 80 80 80 80 79 79 79 79
93 92 89 78 76 85 88 93 96 95 97 98 97 90 98 104 102 108 107 108 105 106 101 88 79 78 79 79 78 78 78 78 78 78 78 78 78 78 77 78 78 79 80 80 79 79 79 79 78
94 90 78 77 78 86 93 96 95 92 95 97 98 92 94 102 106 108 104 109 107 108 106 93 79 78 79 79 78 78 78 78 78 78 78 78 78 77 77 78 78 79 79 79 79 79 78 78 78
79 81 72 73 79 88 93 97 95 93 96 97 96 95 98 108 106 108 108 109 111 108 105 95 80 79 78 79 78 78 77 77 77 78 78 78 78 77 77 77 78 78 79 79 79 78 78 77 77
77 77 72 72 78 85 91 98 93 93 94 95 101 91 99 102 107 108 108 110 111 109 105 96 89 83 78 78 78 77 77 77 77 77 77 77 77 77 77 77 77 78 78 78 78 78 77 77 77
84 81 75 78 74 74 88 93 96 93 92 102 101 91 93 104 109 111 112 111 111 109 107 102 93 90 87 86 78 77 77 77 77 77 77 77 77 77 77 76 77 77 77 77 77 77 77 77 77
90 74 71 76 78 81 90 89 95 100 96 98 99 96 99 104 108 108 108 109 109 108 106 104 101 95 92 92 87 78 77 77 77 78 77 77 84 83 83 80 79 77 77 77 77 77 77 77 76
81 74 74 83 85 83 88 89 92 93 93 93 96 101 101 103 104 102 103 104 105 106 106 106 102 98 96 97 93 85 87 85 84 84 84 82 85 86 87 84 78 77 77 77 77 76 76 77 84
78 73 82 85 87 88 85 86 92 90 88 94 93 97 100 100 101 102 104 105 106 107 107 106 98 97 97 98 97 94 90 89 87 85 84 84 86 87 89 88 85 83 78 83 80 80 82 83 86
75 80 81 84 87 88 83 86 84 89 92 99 101 101 99 97 98 101 103 106 107 106 105 105 102 93 93 98 97 95 95 93 91 90 85 84 85 85 86 88 88 84 86 82 84 84 84 84 86
78 80 83 84 84 86 88 83 81 85 93 99 100 100 97 97 98 100 101 103 104 103 104 104 102 94 90 88 95 95 94 96 95 94 89 88 88 84 87 88 89 88 88 86 86 87 86 86 87
81 82 82 84 84 84 82 82 84 86 92 93 95 96 98 98 98 99 99 98 98 99 101 102 101 97 91 88 87 91 92 96 97 96 94 86 87 86 88 87 87 90 90 90 89 87 87 86 87
79 73 77 80 83 81 84 76 77 86 89 89 90 92 93 95 99 98 99 97 98 98 98 98 98 99 91 89 90 90 94 96 95 96 92 90 85 85 85 88 86 88 89 88 88 87 87 86 85
70 72 66 76 78 81 78 68 81 87 86 86 89 91 93 94 96 97 98 97 97 97 95 95 100 100 93 91 92 93 96 95 95 95 95 90 87 85 85 86 86 88 87 89 87 86 85 82 83
67 59 65 70 81 78 74 70 81 87 86 85 87 90 92 93 95 96 98 98 97 96 94 94 94 95 95 93 93 91 90 93 95 95 93 91 88 85 84 86 87 85 87 87 85 85 82 80 82
60 63 66 66 75 79 75 74 80 84 84 84 85 88 90 92 95 98 99 99 96 95 93 92 92 91 92 93 91 93 94 94 94 93 93 90 87 85 81 86 84 85 85 86 85 80 81 81 83
66 63 62 69 78 75 73 74 79 83 83 82 85 88 88 90 95 97 97 97 95 94 91 89 89 87 89 92 91 92 92 93 93 92 91 90 87 85 81 84 84 84 83 82 81 80 77 81 80
62 59 60 66 72 72 70 70 77 81 83 84 84 85 87 89 91 93 94 94 92 91 90 88 88 86 88 91 87 93 94 95 94 93 89 88 85 84 81 82 84 81 82 80 79 77 79 79 76
59 57 57 58 66 69 67 64 68 77 82 83 85 86 88 88 89 90 91 91 92 91 90 89 87 87 88 87 90 89 89 89 92 90 86 84 84 82 80 80 83 79 82 80 78 78 77 74 77
53 64 61 59 57 51 66 52 65 72 74 78 81 84 86 87 88 88 89 90 90 91 92 91 89 87 88 86 85 84 86 86 88 86 86 81 79 78 77 78 79 77 82 81 79 81 78 76 74
57 64 61 60 56 55 57 54 62 72 70 74 79 83 84 87 88 89 91 91 93 93 93 92 89 87 86 85 84 88 84 89 87 87 78 74 75 75 79 77 78 80 83 81 80 78 78 80 75
64 59 59 59 56 45 54 54 57 64 69 75 81 83 85 88 89 90 91 92 93 95 94 92 88 86 87 85 84 84 83 86 85 83 75 72 75 77 77 80 80 81 82 81 81 80 77 75 75
58 50 41 39 43 42 57 53 58 68 74 77 78 82 86 88 89 90 90 92 92 92 92 91 88 84 85 85 84 84 84 86 83 77 77 75 78 79 76 80 78 81 82 81 80 77 76 75 76
48 52 42 31 37 43 54 48 57 72 77 80 81 81 84 85 88 88 90 91 93 92 91 90 88 85 85 84 83 84 85 86 86 82 83 82 83 82 80 81 81 83 82 81 78 78 77 77 77
53 49 56 44 48 40 45 53 64 71 73 76 78 80 81 83 83 85 88 90 91 91 90 89 87 86 85 84 84 83 83 85 85 84 83 82 81 79 82 83 82 82 81 79 77 78 77 77 74
56 59 39 48 34 33 45 50 52 63 67 74 76 77 79 81 84 85 88 89 89 91 89 86 88 85 85 85 84 84 84 85 83 83 84 84 83 83 82 82 81 80 79 79 78 79 77 75 72
51 52 47 47 44 37 35 45 61 67 69 71 76 77 78 81 81 81 83 81 86 88 88 86 86 85 84 85 84 81 79 80 82 83 83 81 81 82 82 82 81 81 80 79 77 75 75 75 72
59 54 51 34 35 48 45 43 63 59 77 75 75 75 79 81 80 76 73 75 82 86 87 86 85 86 86 83 80 78 81 82 81 81 81 82 81 83 83 82 81 81 82 75 76 74 78 74 70

GFSSGP_sfc_temp_048.txt.gz
Temp
80 89 94 93 75 76 72 78 90 90 93 101 102 97 94 98 86 76 102 106 98 88 83 82 79 79 79 79 79 78 78 79 79 79 79 79 79 79 79 78 79 79 80 80 80 80 80 79 79
89 93 93 86 71 67 73 86 86 93 99 101 99 97 94 91 98 98 100 103 98 89 82 82 79 79 79 79 78 78 78 78 79 79 79 78 78 78 78 78 79 79 80 80 80 80 79 79 79
84 93 84 78 73 68 74 89 92 98 99 97 94 100 97 94 100 101 103 104 97 91 86 81 79 79 79 79 78 78 78 78 78 78 78 78 78 78 78 78 78 79 80 80 80 79 79 79 79
89 89 85 72 71 80 82 88 95 96 97 98 98 92 100 103 102 103 105 104 97 95 91 80 78 79 79 79 79 78 78 78 78 78 78 78 78 77 77 77 78 79 80 80 79 79 79 79 78
90 86 72 70 74 81 88 93 96 94 95 95 97 91 94 103 106 104 104 105 99 97 95 82 78 78 79 79 79 78 78 77 77 78 78 78 78 77 77 77 78 78 79 79 79 79 78 78 78
75 80 67 67 73 83 89 94 95 93 95 96 95 93 96 107 104 104 105 102 105 98 91 84 79 78 78 78 78 78 77 77 77 78 78 78 77 77 77 77 77 78 78 79 79 78 78 77 77
74 72 65 68 70 76 83 93 89 93 93 93 100 91 98 103 106 103 104 103 105 101 90 83 80 79 78 78 77 77 77 77 77 77 77 77 77 77 77 77 77 77 78 78 78 78 77 77 77
78 73 67 72 72 74 86 88 92 93 92 102 102 89 91 101 107 105 106 106 107 102 90 86 83 83 81 80 78 77 77 77 77 77 77 77 77 77 77 76 76 77 77 77 77 77 77 77 76
86 70 66 70 72 77 88 87 94 97 93 96 98 98 100 103 105 103 101 104 105 102 97 92 89 84 83 84 81 77 77 77 77 77 77 76 76 76 78 77 78 77 77 77 77 77 77 76 76
76 69 70 79 81 80 85 88 90 90 90 91 94 100 102 102 101 98 98 99 100 100 100 99 91 86 85 90 82 78 79 79 78 78 77 76 76 76 80 79 77 77 77 77 76 76 76 76 77
75 69 77 80 85 86 84 85 91 86 84 91 91 96 99 100 98 98 100 102 102 102 101 99 90 85 87 89 85 81 81 80 79 77 76 75 77 77 79 79 78 75 76 76 76 75 75 76 76
70 77 79 81 85 84 83 88 85 86 87 94 96 99 99 97 98 99 100 102 102 102 100 94 92 87 86 91 89 84 84 82 80 79 77 76 76 76 76 79 79 74 76 74 75 75 75 75 77
73 77 80 82 82 82 84 82 83 84 90 93 95 96 97 96 96 97 99 100 92 92 93 92 90 86 85 85 87 86 85 85 83 81 79 78 78 76 78 78 80 77 78 76 75 76 76 76 77
77 78 79 82 82 83 79 80 83 86 91 89 90 91 94 95 95 95 94 93 95 97 95 98 90 85 86 84 83 84 83 85 84 84 83 79 78 77 79 77 78 78 79 79 77 77 77 77 78
75 69 75 77 80 79 82 74 76 86 89 87 88 90 91 93 97 94 94 91 93 95 95 92 94 86 84 83 83 82 83 85 83 84 84 81 79 77 77 79 78 79 77 78 77 77 77 76 78
67 68 61 74 76 79 77 65 80 85 84 83 86 88 90 91 94 95 95 92 91 92 90 90 95 91 84 82 82 83 84 83 84 83 83 83 80 79 78 79 79 79 78 77 77 77 76 76 75
64 56 61 66 78 77 74 68 79 84 82 80 83 86 88 90 92 91 94 92 90 88 88 88 87 88 85 82 83 82 81 81 81 82 83 84 82 81 79 80 79 77 78 78 76 75 74 73 73
58 61 64 63 72 74 72 72 78 81 81 80 82 85 86 87 90 93 92 93 90 87 85 83 84 84 85 84 81 81 81 81 82 83 84 84 83 81 79 80 78 78 78 76 75 73 75 73 73
64 61 60 66 73 69 68 71 77 82 81 79 81 82 84 86 90 92 92 93 91 85 83 82 82 82 82 82 80 79 78 80 82 83 84 84 82 82 78 78 78 78 76 75 75 74 73 71 72
61 58 57 63 68 66 65 66 73 79 80 82 80 80 82 85 88 89 89 90 88 84 82 80 80 80 81 81 77 79 80 83 85 84 83 84 82 80 79 77 77 77 76 75 75 73 71 71 71
59 56 56 56 63 66 62 59 66 74 78 80 82 84 84 83 83 86 88 87 88 84 81 81 79 78 79 79 79 79 79 80 81 82 82 82 81 80 78 77 77 76 76 75 74 72 71 69 70
52 63 61 59 56 48 63 47 60 67 70 75 77 79 83 85 86 86 87 86 85 86 86 83 80 79 79 79 79 77 78 77 79 82 82 80 81 80 78 77 77 75 76 74 73 74 72 70 68
55 63 59 59 55 53 54 50 56 65 64 71 76 79 81 85 86 87 88 87 88 87 86 82 80 79 79 79 79 78 78 80 82 81 79 77 76 75 77 76 75 73 75 75 73 72 72 70 68
62 57 57 56 54 43 51 51 52 59 64 69 76 80 82 84 86 87 88 88 87 90 88 83 79 78 79 80 78 77 77 78 79 78 75 74 73 71 73 76 75 74 75 74 73 73 72 71 70
59 50 36 39 40 40 53 50 55 63 69 71 73 78 83 86 87 86 87 88 87 86 86 85 81 79 79 79 79 77 76 77 79 76 75 72 71 71 73 74 73 75 75 75 73 72 71 70 69
53 51 36 27 34 41 54 44 54 64 69 74 77 79 82 83 85 86 87 87 89 87 84 84 82 79 80 79 78 79 78 80 78 77 74 73 73 74 74 75 75 76 77 75 73 72 71 70 69
52 46 51 36 41 40 47 53 62 66 67 70 73 76 79 80 81 85 87 86 86 86 86 82 81 80 80 79 79 78 80 80 77 77 75 76 76 77 75 77 75 76 77 74 72 71 70 70 69
54 59 44 45 30 29 42 45 49 58 58 67 71 74 77 80 82 83 84 84 85 86 85 83 84 82 82 81 80 80 80 82 79 77 76 77 77 77 76 76 76 77 75 74 71 70 70 69 68
52 50 50 39 40 34 34 42 58 53 52 50 57 75 78 79 81 83 84 82 86 88 88 82 84 83 81 81 80 79 80 80 79 77 76 76 77 77 77 77 76 75 74 73 71 71 71 69 67
52 49 45 37 37 44 41 43 59 50 51 53 50 66 77 78 81 80 80 80 80 83 84 83 82 83 82 79 77 75 76 77 77 77 77 77 76 77 78 78 76 77 76 72 72 70 72 69 66